395  
ASUS43 KDMX 211206  
RWRIA  
 
WEATHER ROUNDUP FOR IOWA  
NATIONAL WEATHER SERVICE DES MOINES IA  
700 AM CDT THU SEP 21 2017  
 
NOTE: "FAIR" INDICATES FEW OR NO CLOUDS BELOW 12,000 FEET WITH NO  
SIGNIFICANT WEATHER AND/OR S TO VISIBILITY
.  
 
* - THESE STATIONS ARE NOT NWS STATIONS...THUS NOT UNDER NWS  
QUALITY CONTROL. THEY ALSO DO NOT REPORT WEATHER SUCH  
AS PRECIPITATION OR FOG.
 
 
IAZ001>003-012>014-020>022-031>034-043>046-211300-  
NORTHWEST IOWA  
 
CITY SKY/WX TMP DP RH WIND PRES REMARKS
 
CARROLL * CLOUDY 57 57 100 CALM 29.91F  
DENISON * MOCLDY 63 57 82 E9 29.91S  
ORANGE CITY * CLEAR 57 54 88 E8 29.90F  
SHELDON * CLEAR 54 50 87 E7 29.90F  
SIOUX CITY PTCLDY 57 53 86 E7 29.88S  
6HR MIN TEMP: 49; 6HR MAX TEMP: 57;  
 
SPENCER CLEAR 52 49 89 E8 29.93F  
6HR MIN TEMP: 49; 6HR MAX TEMP: 52;  
 
STORM LAKE * CLEAR 57 52 82 E9 29.93F  

 
 
IAZ055>058-069>071-079>083-090>094-211300-  
SOUTHWEST IOWA  
 
CITY SKY/WX TMP DP RH WIND PRES REMARKS
 
AUDUBON * PTCLDY 64 59 82 E5 29.91F  
CLARINDA * MOCLDY 68 66 94 E3 29.90R  
COUNCIL BLFS * CLEAR 66 63 88 E10G17 29.86S  
CRESTON * CLOUDY 70 66 88 E13 29.92S  
LAMONI CLOUDY 69 69 100 E3 29.92R  
6HR MIN TEMP: 68; 6HR MAX TEMP: 72; 6HR PCP: 0.05;  
 
RED OAK * CLOUDY 68 63 83 E10 29.88R  
SHENANDOAH * CLEAR 68 64 88 E9 29.87R  

 
 
IAZ047>049-059>061-072>074-084-211300-  
CENTRAL IOWA  
 
CITY SKY/WX TMP DP RH WIND PRES REMARKS
 
AMES CLOUDY 65 64 97 NE5 29.92F  
6HR MIN TEMP: 63; 6HR MAX TEMP: 67;  
 
ANKENY * CLOUDY 64 63 94 CALM 29.92S  
BOONE * CLOUDY 63 61 94 E7 29.91F  
CHARITON * CLOUDY 70 68 94 SE12G18 29.94R  
DES MOINES CLOUDY 68 66 93 S3 29.91S  
6HR MIN TEMP: 67; 6HR MAX TEMP: 73; 6HR PCP: 0.16;  
 
GRINNELL* CLOUDY 70 67 90 SE6 29.94R  
KNOXVILLE * CLOUDY 70 66 88 S9G16 29.90S  
MARSHALLTOWN CLOUDY 65 64 97 CALM 29.92F FOG  
6HR MIN TEMP: 64; 6HR MAX TEMP: 68;  
 
NEWTON * CLOUDY 70 68 94 SE5 29.92R  
PELLA * CLOUDY 70 66 88 S7 29.92S  

 
 
IAZ004>006-015-016-023>025-035-036-211300-  
NORTH CENTRAL IOWA  
 
CITY SKY/WX TMP DP RH WIND PRES REMARKS
 
ALGONA * CLEAR 55 54 94 E8 29.95F  
CLARION * CLOUDY 59 55 88 E9 29.94F  
ESTHERVILLE CLEAR 50 48 93 E5 29.95S  
6HR MIN TEMP: 47; 6HR MAX TEMP: 54;  
 
FORT DODGE * PTCLDY 56 53 90 E7 29.94F  
MASON CITY PTCLDY 51 49 92 E5 29.98F  
6HR MIN TEMP: 48; 6HR MAX TEMP: 53;  
 
FOREST CITY * N/A 55 50 82 CALM 29.96F  

 
 
IAZ007>011-017>019-026>030-037>042-050>054-066-211300-  
NORTHEAST IOWA  
 
CITY SKY/WX TMP DP RH WIND PRES REMARKS
 
CEDAR RAPIDS CLOUDY 68 66 93 S10G18 29.95S  
6HR MIN TEMP: 67; 6HR MAX TEMP: 73;  
 
CLINTON * CLOUDY N/A N/A N/A W16G23 29.91F  
DECORAH * CLOUDY 61 57 88 NE3 29.98F  
DUBUQUE CLOUDY 66 64 93 N5 29.96F  
6HR MIN TEMP: 65; 6HR MAX TEMP: 71;  
 
MONTICELLO * CLOUDY 66 64 94 CALM 29.95S  
OELWEIN * CLOUDY 66 66 100 SE6 29.96S  
WATERLOO CLOUDY 62 62 100 E6 29.93F  
6HR MIN TEMP: 61; 6HR MAX TEMP: 65;  
 

 
 
IAZ064-065-067-068-078-211300-  
EAST CENTRAL IOWA  
 
CITY SKY/WX TMP DP RH WIND PRES REMARKS
 
DAVENPORT RAIN 70 61 73 S25G36 29.94F  
6HR MIN TEMP: 68; 6HR MAX TEMP: 76; 6HR PCP: 0.35;  
 
IOWA CITY CLOUDY 72 65 78 S10G18 29.97S  
6HR MIN TEMP: 69; 6HR MAX TEMP: 72;  
 
MUSCATINE * N/A N/A N/A N/A MISG N/A  
QUAD CITIES LGT RAIN 70 62 76 W10 29.98F  
6HR MIN TEMP: 69; 6HR MAX TEMP: 76; 6HR PCP: 0.95;  
 

 
 
IAZ062-063-075>077-085>089-095>099-211300-  
SOUTHEAST IOWA  
 
CITY SKY/WX TMP DP RH WIND PRES REMARKS
 
BURLINGTON CLOUDY 69 67 93 NW3 30.01R THUNDER  
6HR MIN TEMP: 68; 6HR MAX TEMP: 78; 6HR PCP: 0.06;  
 
FAIRFIELD * CLOUDY 70 66 88 SE20G29 30.00F  
FORT MADISON * LGT RAIN 70 68 94 N9 30.03R  
KEOKUK * CLOUDY 72 66 83 NE9 30.01R  
OTTUMWA TSTM 69 67 93 SE14G25 29.96R  
6HR MIN TEMP: 69; 6HR MAX TEMP: 75; 6HR PCP: 2.06;  
 
WASHINGTON * LGT RAIN 68 66 94 S17G24 30.03R  

 
 
ABBREVIATIONS USED IN REMARKS  
TC - TEMPERATURES IN CELSIUS  
WCI - WIND CHILL INDEX  
HX - HEAT INDEX  
VSB - VISIBILITY  

 
 
 
 
CLICK HERE TO GO TO PREVIOUS BULLETINS.

The Nexlab IA Page Main Text Page